Regional Weather Roundup
Issued by NWS Charleston, SC

Current Version | Previous Version | Text Only | Print | Product List | Glossary Off
Versions: 1 2 3 4 5 6 7 8 9 10 11 12 13 14 15 16 17 18 19 20 21 22 23 24 25 26 27 28 29 30 31 32 33 34 35 36 37 38 39 40 41 42 43 44 45 46 47 48 49 50

260
ASUS42 KCHS 050927
RWRCHS

REGIONAL WEATHER ROUNDUP
NATIONAL WEATHER SERVICE CHARLESTON SC
400 AM EST MON DEC 05 2016

NOTE: "FAIR" INDICATES FEW OR NO CLOUDS BELOW 12,000 FEET WITH NO
SIGNIFICANT WEATHER AND/OR OBSTRUCTIONS TO VISIBILITY.

NOT ALL STATIONS ARE QUALITY CONTROLLED. USE DATA WITH CAUTION...
ESPECIALLY DEWPOINT OBSERVATIONS.

SCZ027-030-031-034>040-042>050-051000-
...SOUTHEAST SOUTH CAROLINA...

CITY           SKY/WX    TMP DP  RH WIND       PRES   REMARKS
N CHARLESTON   CLOUDY    62  60  93 NW8       29.96S
WATERFRONT PRK   N/A     68  66  93 SW9       29.94F
MOUNT PLEASANT PTSUNNY   70  66  88 SW9G16    29.96S FOG
JOHNS ISLAND   DRIZZLE   68  66  94 SW14G21   29.96S
PINOPOLIS        N/A     52  52 100 NW8       29.90R
MONCKS CORNER  LGT RAIN  50  48  93 CALM      29.98S
SUMMERVILLE    DRIZZLE   50  50 100 NW5       29.99F
BEAUFORT MCAS  LGT RAIN  67  65  93 SW7       29.97S
BEAUFORT ARPT  CLOUDY    66  64  94 SW5       29.96S
HILTON HEAD IS PTCLDY    68  66  94 VRB12     29.97F
WALTERBORO     CLOUDY    52 N/A N/A NW3       29.99S
ALLENDALE      CLOUDY    48  48 100 CALM      29.97F

...SOUTHERN MIDLANDS AND PEE DEE...

CITY           SKY/WX    TMP DP  RH WIND       PRES   REMARKS
GEORGETOWN     DRIZZLE   66  64  94 NW5       29.95F
KINGSTREE      RAIN      46  45  93 CALM      29.98R
ORANGEBURG     LGT RAIN  46  45  96 CALM      29.99F
BARNWELL       NOT AVBL
AIKEN          LGT RAIN  43  43 100 CALM      30.00F
MANNING        NOT AVBL
COLUMBIA       LGT RAIN  46  43  89 N3        29.98F
SUMTER         LGT RAIN  45  45 100 CALM      29.97R
FLORENCE       RAIN      45  45 100 N5        29.97F FOG
MYRTLE BEACH   CLOUDY    57  54  88 W9        29.96R
N MYRTLE BEACH RAIN      63  63 100 W12       29.93S FOG

$$

GAZ063-065-086>088-099>101-113>116-118-119-134>141-150-051000-
...SOUTHEAST GEORGIA...

CITY           SKY/WX    TMP DP  RH WIND       PRES   REMARKS
SAVANNAH ARPT  CLOUDY    67  62  84 W5        29.97S
HUNTER AAF     PTCLDY    68  68 100 SW5       29.94F
FORT STEWART   CLOUDY    66  63  88 CALM      29.95S
STATESBORO     LGT RAIN  52  52 100 N5        29.98F
SYLVANIA       DRIZZLE  N/A N/A N/A N3        29.99F
CLAXTON        RAIN     N/A N/A N/A CALM      29.99S

...CSRA...CENTRAL AND FAR SOUTHEAST GEORGIA...

CITY           SKY/WX    TMP DP  RH WIND       PRES   REMARKS
THOMSON        CLOUDY    46  46 100 CALM      30.08R
AUGUSTA-BUSH   LGT RAIN  48  45  89 SE3       29.96F
AUGUSTA-DANIEL LGT RAIN  46  43  89 CALM      29.97F
SWAINSBORO     LGT RAIN  48  46  93 E3        29.97F
VIDALIA        LGT RAIN  52  52 100 E3        29.98F
EASTMAN        CLOUDY    51  51  99 CALM      29.98F
HAZLEHURST     HVY RAIN  57  57 100 CALM      29.96F
ALMA           LGT RAIN  64  64 100 CALM      29.97S FOG
WAYCROSS       RAIN      68  68  99 S7        29.97S
JESUP          RAIN      66  66 100 CALM      29.98S
BAXLEY         RAIN      63  63 100 CALM      29.97S
BRUNSWICK      CLOUDY    70  68  94 S13       29.96F
SAINT SIMONS   MOCLDY    69  64  84 S7        29.98F

$$

SCZ027-028-034-036>038-045-046-048>050-GAZ119-141-051000-
...LAKE AND SUPPLEMENTAL COASTAL OBSERVATIONS...

STATION/POSITION TIME  TEMP    WIND        PRES    WAVE   SWELL
                       AIR SEA DIR/SP/G            HT/PER HT/PER/DIR
                 (UTC) (F)     (DEG/KT/KT) (MB)    (FT/S) (FT/S/D)
WINYAH BAY       0845   67     230/  9     1014.0S
LAKE MURRAY      0830   44     360/  2/  5 1015.2S
ACE BASIN NERRS  0845   67     210/  2     1014.0F
FORT PULASKI     0900   66 62  220/  6/  9 1014.8
SAPELO ISLAND    0900   67     190/  8     1015.0

$$

ANZ835-935-AMZ111-154-330-350-352-354-370-450-454-472-051000-
...C-MAN AND BUOY OBSERVATIONS...

STATION/POSITION TIME  TEMP    WIND        PRES    WAVE   SWELL
                       AIR SEA DIR/SP/G            HT/PER HT/PER/DIR
                 (UTC) (F)     (DEG/KT/KT) (MB)    (FT/S) (FT/S/D)
BUOY 41004       0850   75 74  200/ 21/ 27 1013.5F   8/ 7
BUOY 41008       0850   68 65  180/ 16/ 17 1014.8F   4/ 6   2/ 90/10
FOLLY BEACH CMAN 0900   66     230/ 10/ 14 1015.0F
CAPERS NEARSHORE 0808   65 62  230/  8/ 14 1014.5R
FRIPP NEARSHORE  0908   64 62  240/  8/ 10 1014.6S


STATION/POSITION TIME  TEMP    WIND        PRES    WAVE   SWELL
                       AIR SEA DIR/SP/G            HT/PER HT/PER/DIR
                 (UTC) (F)     (DEG/KT/KT) (MB)    (FT/S) (FT/S/D)
5E ST. MARYS GA  0900      66                N/A     3/ 5
FRYING PAN BUOY  0910   74 74  190/ 25/ 31 1013.5
BUOY 41025       0850   69 74  190/ 25/ 29 1014.2F   5/ 4   2/ 70/ 8
CAPE LOOKOUT NC  0900   63     210/  6/  8 1013.7F
BUOY 41002       0850   70 73  180/ 17/ 21 1018.1F   4/ 9   3/ 30/ 9
BUOY 41010       NOT AVBL
ST AUGUSTINE FL  0900   70 68  200/  7/  9 1016.4S


$$




USA.gov is the U.S. government's official web portal to all federal, state and local government web resources and services.